This is the latest recevied weather packets stored in our database for station/object WR7DW-3. If no packets are shown the sender has not sent any weather packets the latest 10 day(s).
| Time | Temp. | Humidity | Pressure | Rain* | Wind** | Luminosity | Snow |
|---|---|---|---|---|---|---|---|
| 1777680889 | 10.56° C | 44% | 1009.5 hPa | 0 mm | - | - | - |
| 1777679989 | 10.56° C | 44% | 1009.5 hPa | 0 mm | - | - | - |
| 1777679089 | 10° C | 44% | 1009.9 hPa | 0 mm | - | - | - |
| 1777678189 | 10° C | 44% | 1009.8 hPa | 0 mm | - | - | - |
| 1777677289 | 9.44° C | 46% | 1009.8 hPa | 0 mm | - | - | - |
| 1777676389 | 9.44° C | 46% | 1009.8 hPa | 0 mm | - | - | - |
| 1777675489 | 10° C | 46% | 1010.1 hPa | 0 mm | - | - | - |
| 1777674591 | 9.44° C | 48% | 1010.4 hPa | 0 mm | - | - | - |
| 1777673689 | 9.44° C | 47% | 1010.6 hPa | 0 mm | - | - | - |
| 1777672790 | 9.44° C | 48% | 1010.6 hPa | 0 mm | - | - | - |
| 1777670990 | 8.89° C | 50% | 1010.8 hPa | 0 mm | - | - | - |
| 1777670089 | 8.89° C | 49% | 1010.8 hPa | 0 mm | - | - | - |
| 1777669191 | 8.89° C | 48% | 1010.9 hPa | 0 mm | - | - | - |
| 1777668291 | 8.33° C | 48% | 1010.9 hPa | 0 mm | - | - | - |
| 1777667390 | 8.33° C | 48% | 1010.9 hPa | 0 mm | - | - | - |
| 1777666491 | 8.33° C | 47% | 1010.9 hPa | 0 mm | - | - | - |
| 1777665596 | 7.78° C | 47% | 1011 hPa | 0 mm | - | - | - |
| 1777664689 | 7.78° C | 50% | 1011.1 hPa | 0 mm | - | - | - |
| 1777663790 | 7.22° C | 52% | 1011.2 hPa | 0 mm | - | - | - |
| 1777662892 | 7.22° C | 52% | 1011.2 hPa | 0 mm | - | - | - |
| 1777661990 | 6.67° C | 54% | 1011.5 hPa | 0 mm | - | - | - |
| 1777661090 | 6.67° C | 57% | 1011.6 hPa | 0 mm | - | - | - |
| 1777660190 | 6.67° C | 53% | 1011.7 hPa | 0 mm | - | - | - |
| 1777659290 | 6.11° C | 56% | 1011.8 hPa | 0 mm | - | - | - |
| 1777658390 | 6.11° C | 59% | 1011.9 hPa | 0 mm | - | - | - |
* Rain latest hour (hover to see other rain measurements)
** Current wind speed in m/s (hover to see current wind gust speed)